Location: La Junie
(44.7428°N, 2.1773°E)
Time: 20:32:41
(UTC+00:00)

Cosmos 2084 Rocket - Pass Details

Date: 15 May 2026
Orbit: 527 x 582 km, 62.8° (Epoch: 8 June)

Event Time Altitude Azimuth Distance (km) Brightness Sun altitude
Rises 19:41:38 0° 322° (NW) 2,757 8.6 -5.2°
Reaches altitude 10° 19:43:52 10° 324° (NW) 1,866 7.4 -5.5°
Maximum altitude 19:48:04 76° 50° (NE) 594 3.5 -6.2°
Drops below altitude 10° 19:52:19 10° 137° (SE) 1,882 5.4 -6.8°
Enters shadow 19:52:43 - 137° (SE) 2,039 5.6 -6.8°
